Total_Precipitation_Accumulation
0.13 0.15 0.18 0.18 0.18 0.21 0.23 0.23 0.23 0.22 0.21 0.19 0.20 0.19 0.20 0.24 0.16 0.09 0.06 0.07 0.19 0.20 0.08 0.01 0.02 0.04 0.24 0.35 0.66 1.10 1.00 0.52 0.36 0.14 0.05 0.09 0.12 0.09 0.07 0.07 0.09 0.13 0.08 0.25 0.50
0.11 0.14 0.18 0.17 0.19 0.21 0.22 0.20 0.19 0.19 0.20 0.23 0.27 0.29 0.34 0.33 0.09 0.06 0.10 0.14 0.10 0.14 0.02 0.02 0.02 0.06 0.18 0.28 0.68 1.15 0.68 0.15 0.11 0.27 0.21 0.23 0.25 0.20 0.18 0.15 0.15 0.14 0.19 0.52 0.70
0.13 0.15 0.15 0.18 0.21 0.20 0.19 0.20 0.20 0.19 0.19 0.24 0.31 0.43 0.53 0.24 0.05 0.07 0.11 0.07 0.14 0.07 0.02 0.01 0.04 0.16 0.17 0.26 0.43 0.59 0.39 0.09 0.05 0.13 0.44 0.50 0.43 0.31 0.36 0.27 0.21 0.22 0.45 0.63 0.93
0.19 0.19 0.17 0.19 0.24 0.22 0.21 0.19 0.20 0.22 0.25 0.26 0.37 0.52 0.41 0.21 0.07 0.03 0.12 0.07 0.06 0.03 0.04 0.04 0.11 0.23 0.20 0.20 0.21 0.41 0.10 0.16 0.10 0.13 0.31 0.57 0.68 0.42 0.42 0.32 0.20 0.29 0.59 0.90 1.12
0.21 0.23 0.27 0.29 0.27 0.24 0.19 0.18 0.19 0.24 0.27 0.29 0.42 0.57 0.42 0.19 0.05 0.00 0.00 0.02 0.03 0.05 0.07 0.09 0.14 0.20 0.30 0.17 0.24 0.31 0.13 0.24 0.24 0.28 0.33 0.46 0.55 0.74 0.52 0.36 0.29 0.32 0.47 0.94 1.22
0.29 0.34 0.34 0.35 0.35 0.30 0.24 0.26 0.29 0.30 0.27 0.29 0.50 0.57 0.47 0.18 0.00 0.00 0.00 0.00 0.01 0.05 0.15 0.20 0.18 0.22 0.32 0.25 0.34 0.21 0.18 0.20 0.27 0.43 0.47 0.63 0.50 0.77 0.66 0.56 0.31 0.30 0.33 0.83 1.13
0.29 0.33 0.43 0.40 0.32 0.33 0.41 0.41 0.36 0.28 0.29 0.38 0.54 0.53 0.45 0.08 0.00 0.00 0.01 0.04 0.04 0.09 0.10 0.22 0.33 0.45 0.40 0.35 0.22 0.23 0.37 0.36 0.26 0.36 0.52 0.84 0.76 0.62 0.55 0.95 0.58 0.20 0.26 0.70 1.16
0.32 0.37 0.40 0.38 0.46 0.47 0.39 0.33 0.41 0.43 0.43 0.44 0.40 0.58 0.37 0.00 0.00 0.00 0.00 0.03 0.08 0.13 0.16 0.25 0.54 0.48 0.45 0.42 0.24 0.36 0.74 0.60 0.28 0.37 0.66 1.36 1.06 0.22 0.47 1.15 0.88 0.21 0.26 0.51 0.72
0.45 0.41 0.38 0.39 0.41 0.46 0.46 0.46 0.42 0.39 0.47 0.47 0.48 0.61 0.22 0.00 0.00 0.00 0.00 0.00 0.05 0.16 0.23 0.35 0.62 0.72 0.61 0.69 0.75 0.63 0.47 0.23 0.18 0.28 0.73 1.20 0.91 0.38 0.43 1.09 1.18 0.54 0.27 0.48 0.73
0.47 0.47 0.45 0.44 0.51 0.68 0.72 0.61 0.47 0.46 0.34 0.48 0.82 1.01 0.18 0.00 0.00 0.00 0.00 0.01 0.03 0.18 0.48 0.50 0.70 0.96 0.90 1.10 0.95 0.34 0.24 0.16 0.21 0.19 0.48 0.68 0.63 0.42 0.50 0.99 1.42 1.04 0.52 0.90 1.40
0.51 0.56 0.57 0.63 0.66 0.88 1.05 0.93 0.97 0.85 0.75 0.39 0.35 0.29 0.06 0.03 0.05 0.02 0.01 0.04 0.12 0.30 0.29 0.46 0.76 0.68 0.48 0.48 0.31 0.29 0.38 0.32 0.16 0.22 0.47 0.51 0.40 0.61 0.58 1.09 1.40 1.27 0.89 1.11 1.44
0.67 0.70 0.88 0.99 0.93 0.94 1.00 0.86 0.78 1.24 0.78 0.18 0.13 0.11 0.06 0.05 0.14 0.11 0.16 0.25 0.26 0.17 0.27 0.69 0.60 0.07 0.11 0.36 0.51 0.43 0.41 0.29 0.22 0.14 0.37 0.39 0.40 0.67 0.74 1.27 1.50 1.62 1.41 1.19 1.13
0.97 1.02 1.17 1.27 1.34 1.08 0.75 0.61 0.59 0.89 1.32 0.27 0.07 0.05 0.01 0.10 0.15 0.17 0.32 0.44 0.27 0.15 0.19 0.34 0.33 0.11 0.22 0.49 0.88 0.64 0.49 0.29 0.28 0.32 0.33 0.39 0.68 0.88 0.80 1.13 0.87 1.20 1.65 1.82 1.47
1.14 1.21 1.41 1.50 1.50 0.89 0.86 0.84 0.82 1.51 2.56 0.49 0.04 0.06 0.01 0.09 0.19 0.12 0.33 0.63 0.65 0.20 0.23 0.40 0.34 0.36 0.36 0.36 0.63 0.96 0.34 0.41 0.45 0.70 0.89 0.47 1.08 0.46 0.47 0.67 0.28 0.50 1.00 1.73 1.28
1.51 1.58 1.81 2.15 1.50 1.36 1.09 1.16 1.68 2.73 3.74 0.39 0.09 0.05 0.05 0.16 0.17 0.19 0.31 0.89 0.98 0.50 0.38 0.40 0.18 0.43 0.71 0.58 0.33 0.59 0.38 0.41 0.67 1.03 1.00 0.76 1.19 0.33 0.26 0.29 0.21 0.41 0.73 1.22 1.68
1.87 2.40 2.27 2.26 2.22 1.31 1.17 2.02 2.93 4.49 3.29 0.36 0.19 0.13 0.21 0.22 0.08 0.35 0.78 1.36 1.10 1.03 0.73 0.27 0.16 0.38 1.19 0.55 0.28 0.46 0.95 0.89 1.20 1.86 2.50 0.98 0.69 0.28 0.35 0.38 0.24 0.50 0.64 0.78 1.53
2.46 2.68 2.95 2.37 2.05 1.71 2.41 3.90 5.22 3.98 0.92 0.51 0.30 0.27 0.33 0.46 0.40 0.36 1.40 2.02 1.84 2.12 1.64 0.71 0.23 0.10 0.49 0.54 0.72 1.14 1.63 2.89 2.95 3.22 2.39 0.62 0.48 0.46 0.28 0.23 0.49 0.73 0.81 0.90 1.43
2.36 2.53 2.08 1.86 1.75 2.56 3.96 5.47 5.72 1.29 0.58 0.41 0.32 0.43 0.40 0.51 0.57 0.40 0.72 1.25 1.48 1.44 1.70 1.07 0.62 0.12 0.20 0.40 0.72 1.14 1.58 2.08 1.65 1.28 0.79 0.50 0.67 0.30 0.15 0.20 0.49 0.70 0.86 0.90 0.93
2.43 2.19 2.20 1.72 1.67 2.94 5.06 5.98 2.60 0.99 0.55 0.44 0.35 0.64 0.66 0.89 1.18 0.87 0.71 0.86 1.24 1.87 2.14 1.82 0.48 0.09 0.06 0.05 0.29 0.70 1.29 1.06 0.98 0.61 0.69 0.53 0.25 0.18 0.07 0.07 0.18 0.40 0.73 0.93 0.87
2.84 2.79 2.60 1.98 2.49 3.72 5.29 3.59 0.88 0.33 0.55 0.64 0.94 0.67 0.79 0.80 1.33 1.80 1.51 0.92 0.88 1.60 2.13 1.90 1.50 0.25 0.26 0.31 0.36 0.43 0.53 1.07 1.72 1.86 1.01 0.36 0.20 0.19 0.16 0.17 0.14 0.31 0.65 0.98 0.82
3.65 3.92 2.34 2.38 3.73 5.04 4.91 1.61 0.35 0.22 0.66 1.24 0.86 0.83 0.62 1.27 1.83 2.07 2.36 1.12 0.88 0.87 1.62 2.14 2.03 0.84 0.59 0.70 0.51 0.55 1.10 0.97 1.42 1.15 1.09 0.57 0.36 0.43 0.47 0.46 0.37 0.48 0.73 1.26 1.26
4.21 3.97 2.21 2.92 5.01 4.47 2.07 0.76 0.42 0.40 0.69 0.98 0.93 0.78 0.70 0.84 1.85 1.78 1.50 1.57 1.07 0.92 1.36 1.47 2.28 1.44 0.59 0.42 0.33 0.37 0.76 1.04 1.47 1.29 0.80 0.79 0.45 0.39 0.44 0.47 0.44 0.62 0.70 1.23 1.47
4.95 3.15 3.03 3.49 4.20 2.50 1.07 0.59 0.80 0.60 0.77 1.00 0.80 0.74 0.60 0.70 1.47 0.95 0.99 0.93 1.09 1.19 1.60 1.67 2.25 2.03 1.55 1.44 0.69 0.86 0.41 0.62 0.78 0.93 0.84 0.84 0.41 0.21 0.31 0.36 0.39 0.74 0.67 1.17 1.37
5.84 4.20 4.00 4.50 2.75 1.43 1.31 1.09 0.86 0.54 0.65 0.68 0.67 0.61 0.74 0.58 0.76 0.89 0.60 0.54 0.54 1.08 1.32 1.54 1.63 1.41 1.25 1.59 1.46 1.18 0.83 0.52 0.76 0.86 0.75 0.54 0.25 0.18 0.18 0.27 0.31 0.53 0.83 1.23 1.40
6.08 3.83 2.48 3.03 2.14 1.38 1.94 1.59 0.64 0.75 0.78 0.79 0.71 0.55 1.00 1.23 0.75 0.67 0.64 0.67 0.62 0.88 1.31 1.86 1.56 0.85 0.25 0.23 0.54 0.62 0.76 0.68 0.79 0.53 0.69 0.40 0.31 0.24 0.33 0.37 0.48 0.67 0.85 1.04 1.16
5.32 2.74 2.20 1.53 0.96 1.64 2.24 1.56 0.64 0.95 1.11 0.82 0.85 0.48 0.69 0.99 1.05 1.06 1.16 1.09 1.12 1.15 1.76 1.91 1.66 0.70 0.43 0.19 0.31 0.36 0.38 0.59 0.65 0.36 0.24 0.24 0.28 0.21 0.25 0.28 0.48 0.73 0.88 0.98 1.00
3.62 2.38 3.27 3.01 1.73 2.00 1.75 1.14 0.99 1.26 1.20 0.62 0.61 0.92 0.69 0.55 0.51 0.80 1.10 1.14 1.21 1.44 1.66 1.78 1.58 0.94 0.86 0.39 0.83 0.98 0.71 0.53 0.52 0.49 0.31 0.34 0.27 0.12 0.16 0.24 0.70 0.85 0.96 1.03 1.02